• In Moldova, Republic
  • List of Countries
  • For 7 days
  • Water Temperature
  • Satellite Maps
  • Weather Map
  • Weather Widgets
  • user-avatar
    Login

    Hourly Weather Benguela

    Today, 29 April, Saturday

    Time Temperature Precipitation Wind Pressure Humidity
    00:00 +27°C° 0 mm 2 mps 759 mmHg 74%
    01:00 +27°C° 0 mm 1 mps 760 mmHg 75%
    02:00 +27°C° 0 mm 1 mps 760 mmHg 76%
    03:00 +27°C° 0 mm 1 mps 759 mmHg 77%
    04:00 +27°C° 0 mm 1 mps 759 mmHg 77%
    05:00 +28°C° 0 mm 1 mps 760 mmHg 75%
    06:00 +28°C° 0 mm 1 mps 760 mmHg 73%
    07:00 +30°C° 0 mm 1 mps 760 mmHg 64%
    08:00 +32°C° 0 mm 1 mps 760 mmHg 56%
    09:00 +34°C° 0 mm 1 mps 760 mmHg 49%
    10:00 +36°C° 0 mm 2 mps 760 mmHg 42%
    11:00 +37°C° 0 mm 2 mps 760 mmHg 40%
    12:00 +38°C° 0 mm 3 mps 759 mmHg 38%
    13:00 +40°C° 0 mm 4 mps 759 mmHg 36%
    14:00 +39°C° 0 mm 5 mps 758 mmHg 37%
    15:00 +39°C° 0 mm 5 mps 758 mmHg 39%
    16:00 +38°C° 0 mm 6 mps 757 mmHg 41%
    17:00 +35°C° 0 mm 5 mps 758 mmHg 48%
    18:00 +33°C° 0 mm 5 mps 758 mmHg 56%
    19:00 +29°C° 0 mm 4 mps 758 mmHg 63%
    20:00 +29°C° 0 mm 3 mps 758 mmHg 65%
    21:00 +29°C° 0 mm 3 mps 759 mmHg 66%
    22:00 +29°C° 0 mm 2 mps 759 mmHg 68%
    23:00 +29°C° 0 mm 2 mps 759 mmHg 67%

    Tomorrow, 30 April, Sunday

    Time Temperature Precipitation Wind Pressure Humidity
    00:00 +29°C° 0 mm 2 mps 759 mmHg 66%
    01:00 +29°C° 0 mm 2 mps 759 mmHg 65%
    02:00 +28°C° 0 mm 2 mps 759 mmHg 66%
    03:00 +28°C° 0 mm 2 mps 759 mmHg 66%
    04:00 +28°C° 0 mm 1 mps 759 mmHg 67%
    05:00 +28°C° 0 mm 1 mps 759 mmHg 64%
    06:00 +29°C° 0 mm 1 mps 759 mmHg 62%
    07:00 +30°C° 0 mm 1 mps 759 mmHg 60%
    08:00 +32°C° 0 mm 2 mps 759 mmHg 52%
    09:00 +35°C° 0 mm 2 mps 759 mmHg 44%
    10:00 +38°C° 0 mm 2 mps 760 mmHg 36%
    11:00 +39°C° 0 mm 3 mps 759 mmHg 34%
    12:00 +41°C° 0 mm 4 mps 758 mmHg 31%
    13:00 +41°C° 0 mm 4 mps 757 mmHg 29%
    14:00 +41°C° 0 mm 5 mps 757 mmHg 31%
    15:00 +40°C° 0 mm 5 mps 756 mmHg 34%
    16:00 +39°C° 0 mm 6 mps 756 mmHg 36%
    17:00 +35°C° 0 mm 5 mps 756 mmHg 45%
    18:00 +33°C° 0 mm 4 mps 757 mmHg 54%
    19:00 +29°C° 0 mm 3 mps 757 mmHg 63%
    20:00 +29°C° 0 mm 2 mps 758 mmHg 66%
    21:00 +28°C° 0 mm 2 mps 758 mmHg 69%
    22:00 +28°C° 0 mm 1 mps 759 mmHg 71%
    23:00 +28°C° 0 mm 1 mps 759 mmHg 70%

    Day after tomorrow, 1 May, Monday

    Time Temperature Precipitation Wind Pressure Humidity
    00:00 +27°C° 0 mm 1 mps 759 mmHg 69%
    01:00 +27°C° 0 mm 1 mps 759 mmHg 68%
    02:00 +27°C° 0 mm 1 mps 759 mmHg 66%
    03:00 +27°C° 0 mm 1 mps 758 mmHg 63%
    04:00 +27°C° 0 mm 1 mps 758 mmHg 60%
    05:00 +27°C° 0 mm 1 mps 758 mmHg 57%
    06:00 +28°C° 0 mm 1 mps 759 mmHg 53%
    07:00 +28°C° 0 mm 1 mps 759 mmHg 49%
    08:00 +31°C° 0 mm 2 mps 759 mmHg 43%
    09:00 +35°C° 0 mm 2 mps 759 mmHg 36%
    10:00 +37°C° 0 mm 2 mps 759 mmHg 30%
    11:00 +38°C° 0 mm 3 mps 759 mmHg 28%
    12:00 +39°C° 0 mm 3 mps 758 mmHg 26%
    13:00 +41°C° 0 mm 4 mps 757 mmHg 24%
    14:00 +41°C° 0 mm 4 mps 757 mmHg 25%
    15:00 +40°C° 0 mm 5 mps 756 mmHg 27%
    16:00 +40°C° 0 mm 5 mps 756 mmHg 29%
    17:00 +36°C° 0 mm 4 mps 756 mmHg 41%
    18:00 +33°C° 0 mm 3 mps 757 mmHg 54%
    19:00 +29°C° 0 mm 3 mps 757 mmHg 66%
    20:00 +28°C° 0 mm 2 mps 758 mmHg 68%
    21:00 +28°C° 0 mm 2 mps 758 mmHg 70%
    22:00 +27°C° 0 mm 2 mps 759 mmHg 73%
    23:00 +27°C° 0 mm 2 mps 759 mmHg 70%

    2 May, Tuesday

    Time Temperature Precipitation Wind Pressure Humidity
    00:00 +27°C° 0 mm 2 mps 758 mmHg 67%
    01:00 +27°C° 0 mm 2 mps 758 mmHg 64%
    02:00 +27°C° 0 mm 2 mps 758 mmHg 61%
    03:00 +27°C° 0 mm 1 mps 758 mmHg 59%
    04:00 +27°C° 0 mm 1 mps 757 mmHg 56%
    05:00 +27°C° 0 mm 1 mps 758 mmHg 54%
    06:00 +28°C° 0 mm 1 mps 758 mmHg 51%
    07:00 +28°C° 0 mm 1 mps 759 mmHg 49%
    08:00 +31°C° 0 mm 1 mps 759 mmHg 42%
    09:00 +34°C° 0 mm 2 mps 759 mmHg 34%
    10:00 +37°C° 0 mm 2 mps 759 mmHg 27%
    11:00 +38°C° 0 mm 2 mps 758 mmHg 26%
    12:00 +39°C° 0 mm 3 mps 757 mmHg 24%
    13:00 +41°C° 0 mm 4 mps 757 mmHg 23%
    14:00 +41°C° 0 mm 4 mps 756 mmHg 25%
    15:00 +40°C° 0 mm 4 mps 756 mmHg 26%
    16:00 +40°C° 0 mm 5 mps 755 mmHg 28%
    17:00 +36°C° 0 mm 4 mps 756 mmHg 38%
    18:00 +33°C° 0 mm 3 mps 756 mmHg 49%
    19:00 +29°C° 0 mm 2 mps 757 mmHg 59%
    20:00 +28°C° 0 mm 2 mps 757 mmHg 60%
    21:00 +28°C° 0 mm 2 mps 758 mmHg 61%
    22:00 +27°C° 0 mm 2 mps 758 mmHg 63%
    23:00 +27°C° 0 mm 2 mps 758 mmHg 62%

    3 May, Wednesday

    Time Temperature Precipitation Wind Pressure Humidity
    00:00 +27°C° 0 mm 2 mps 758 mmHg 60%
    01:00 +27°C° 0 mm 2 mps 758 mmHg 59%
    02:00 +27°C° 0 mm 1 mps 757 mmHg 59%
    03:00 +26°C° 0 mm 1 mps 757 mmHg 59%
    04:00 +26°C° 0 mm 1 mps 757 mmHg 59%
    05:00 +27°C° 0 mm 1 mps 758 mmHg 56%
    06:00 +28°C° 0 mm 1 mps 758 mmHg 52%
    07:00 +28°C° 0 mm 1 mps 758 mmHg 49%
    08:00 +31°C° 0 mm 1 mps 758 mmHg 41%
    09:00 +34°C° 0 mm 1 mps 758 mmHg 34%
    10:00 +36°C° 0 mm 1 mps 759 mmHg 26%
    11:00 +38°C° 0 mm 2 mps 758 mmHg 25%
    12:00 +39°C° 0 mm 3 mps 757 mmHg 24%
    13:00 +41°C° 0 mm 4 mps 756 mmHg 23%
    14:00 +40°C° 0 mm 4 mps 756 mmHg 26%
    15:00 +40°C° 0 mm 5 mps 756 mmHg 28%
    16:00 +39°C° 0 mm 5 mps 755 mmHg 31%
    17:00 +35°C° 0 mm 4 mps 756 mmHg 41%
    18:00 +31°C° 0 mm 3 mps 756 mmHg 51%
    19:00 +28°C° 0 mm 2 mps 757 mmHg 61%
    20:00 +28°C° 0 mm 2 mps 757 mmHg 63%
    21:00 +27°C° 0 mm 2 mps 757 mmHg 64%
    22:00 +27°C° 0 mm 1 mps 758 mmHg 66%
    23:00 +27°C° 0 mm 1 mps 758 mmHg 65%

    4 May, Thursday

    Time Temperature Precipitation Wind Pressure Humidity
    00:00 +26°C° 0 mm 2 mps 757 mmHg 64%
    01:00 +26°C° 0 mm 2 mps 757 mmHg 63%
    02:00 +26°C° 0 mm 2 mps 757 mmHg 62%
    03:00 +26°C° 0 mm 2 mps 757 mmHg 61%
    04:00 +26°C° 0 mm 2 mps 757 mmHg 61%
    05:00 +27°C° 0 mm 2 mps 758 mmHg 58%
    06:00 +28°C° 0 mm 2 mps 758 mmHg 55%
    07:00 +28°C° 0 mm 2 mps 759 mmHg 52%
    08:00 +31°C° 0 mm 2 mps 759 mmHg 44%
    09:00 +35°C° 0 mm 2 mps 759 mmHg 36%
    10:00 +37°C° 0 mm 2 mps 759 mmHg 28%
    11:00 +38°C° 0 mm 2 mps 758 mmHg 26%
    12:00 +39°C° 0 mm 3 mps 757 mmHg 25%
    13:00 +41°C° 0 mm 4 mps 756 mmHg 23%
    14:00 +41°C° 0 mm 4 mps 756 mmHg 25%
    15:00 +40°C° 0 mm 4 mps 755 mmHg 28%
    16:00 +39°C° 0 mm 5 mps 755 mmHg 30%
    17:00 +35°C° 0 mm 4 mps 756 mmHg 39%
    18:00 +32°C° 0 mm 4 mps 756 mmHg 49%
    19:00 +28°C° 0 mm 3 mps 757 mmHg 58%
    20:00 +28°C° 0 mm 2 mps 757 mmHg 60%
    21:00 +28°C° 0 mm 2 mps 757 mmHg 61%
    22:00 +27°C° 0 mm 2 mps 757 mmHg 63%
    23:00 +27°C° 0 mm 2 mps 757 mmHg 62%
    Show more